Weather in Martigues

France     43°24′17″N   5°03′24″E
temp.,
°C
wind,
m/s
gust,
m/s
humid.,
%
clouds,
%
prec.,
mm/h
press.,
hPa
HPBL,
m
25 february, thu
thu2501:00+12nw11800 0.0 103323
04:00+12nw11800 0.0 103231
07:00+11ne11780 0.0 103133
10:00+13e22680 0.0 1031226
13:00+15s22570 0.0 1031466
16:00+16s22500 0.0 1030385
19:00+14wsw22590 0.0 1031135
22:00+12nw22670 0.0 1032101
26 february, fri
fri2601:00+12nnw12650 0.0 103241
04:00+10nw23686 0.0 103183
07:00+10nnw227122 0.0 103062
10:00+12nnw236227 0.0 1030223
13:00+16nw235014 0.0 1029430
16:00+18w34431 0.0 1027541
19:00+15w345716 0.0 1027156
22:00+13nw465921 0.0 1028241
27 february, sat
sat2701:00+12nnw377211 0.0 1027248
04:00+11nnw36780 0.0 1027228
07:00+10nnw48840 0.0 1026290
10:00+12nnw46730 0.0 1026347
13:00+16nnw35560 0.0 1026533
16:00+17wnw33520 0.0 1025706
19:00+14nw46670 0.0 1026214
22:00+13nnw22730 0.0 102764
28 february, sun
sun2801:00+12n227615 0.0 102774
04:00+11nne226937 0.0 102650
07:00+11n226418 0.0 102744
10:00+13ne22530 0.0 1027191
13:00+16sse35530 0.0 1027706
16:00+16s33597 0.0 1026567
19:00+14s236819 0.0 1026236
22:00+13n23728 0.0 1027103
1 march, mon
mon101:00+12ne237037 0.0 102790
04:00+12ene237037 0.0 102779
07:00+11ene237049 0.0 1027109
10:00+13ene236198 0.0 1028287
13:00+16sse244985 0.0 1027766
16:00+16sse575399 0.0 1027589
19:00+14sse596369 0.0 1028357
22:00+13e226626 0.0 103097